Regional Weather Roundup
Issued by NWS

Home | Current Version | Previous Version | Text Only | Print | Product List | Glossary Off
Versions: 1 2 3 4 5 6 7 8 9 10 11 12 13 14 15 16 17 18 19 20 21 22 23 24 25 26 27 28 29 30 31 32 33 34 35 36 37 38 39 40 41 42 43 44 45 46 47 48 49 50

000
ASUS44 KMEG 280200
RWRTN
TENNESSEE HOURLY STATE WEATHER ROUNDUP
NATIONAL WEATHER SERVICE MEMPHIS TN
800 PM CST THU NOV 27 2014

TNZ002-004-019-021-049-052-054-088>092-280300-
WEST TENNESSEE

CITY           SKY/WX    TMP DP  RH WIND       PRES   REMARKS
MEMPHIS INTL   CLEAR     38  28  67 CALM      30.47F
NWS MEMPHIS      N/A     32 N/A N/A MISG        N/A
JACKSON        CLEAR     28  23  81 CALM      30.49S
DYERSBURG      CLEAR     30  18  59 SE3       30.51R
UNION CITY     CLEAR     25  21  86 CALM      30.48R
PARIS          CLEAR     21  19  93 S3        30.47F
LEXINGTON      CLEAR     27  21  80 CALM      30.47S
SAVANNAH       CLEAR     28  23  80 CALM      30.50R
$$

TNZ008-025-027-028-033-062-065-066-280300-
NORTH MIDDLE TENNESSEE

CITY           SKY/WX    TMP DP  RH WIND       PRES   REMARKS
NASHVILLE      MOCLDY    31  19  61 N5        30.48S WCI  26
CLARKSVILLE    CLEAR     30  22  72 CALM      30.48S
COOKEVILLE     CLOUDY    28  23  80 CALM      30.44R
CROSSVILLE     CLOUDY    27  19  72 NW9       30.38R WCI  18
$$

TNZ061-075-076-078-094-096-097-280300-
SOUTH MIDDLE TENNESSEE

CITY           SKY/WX    TMP DP  RH WIND       PRES   REMARKS
TULLAHOMA      CLOUDY    28  21  74 N9        30.44S WCI  20
WINCHESTER     CLOUDY    30  25  80 N9        30.43R WCI  22
SHELBYVILLE    CLOUDY    30  25  80 N7        30.47S WCI  23
$$

TNZ017-018-042-046-047-280300-
NORTHEAST TENNESSEE

CITY           SKY/WX    TMP DP  RH WIND       PRES   REMARKS
TRI CITIES     CLOUDY    30  21  69 N5        30.34S WCI  25
ELIZABETHTON   CLOUDY    28  19  69 W8        30.32R WCI  20
$$

TNZ012-013-036-069-073-074-280300-
CENTRAL EAST TENNESSEE

CITY           SKY/WX    TMP DP  RH WIND       PRES   REMARKS
KNOXVILLE      CLOUDY    33  23  66 N8        30.40S WCI  26
OAK RIDGE      MOCLDY    34  22  61 NW5       30.42S WCI  30
GATLINBURG     CLOUDY    30  21  69 NW7       30.39R WCI  23
$$

TNZ083-085-099-280300-
SOUTHEAST TENNESSEE

CITY           SKY/WX    TMP DP  RH WIND       PRES   REMARKS
CHATTANOOGA    CLEAR     33  23  66 N6        30.43R WCI  28
$$

SKY/WX REPORTED AS FAIR MEANS FEW OR NO CLOUDS BELOW
12 THOUSAND FEET.




USA.gov is the U.S. government's official web portal to all federal, state and local government web resources and services.